| time (UTC) | temp C | wind direction | speed KPH | gust KPH | rain 1hr cm | rain 24hr cm | rain mn cm | humidity % | barometer mb |
| 20260505034547 | 17 | 131 | 0.0 | 0.0 | 0.00 | 0.00 | 0.00 | 76 | 1015.1 |
| 20260505033045 | 17 | 136 | 1.6 | 1.6 | 0.00 | 0.00 | 0.00 | 75 | 1014.7 |
| 20260505031542 | 17 | 133 | 3.2 | 3.2 | 0.00 | 0.00 | 0.00 | 73 | 1014.9 |
| 20260505030037 | 17 | 151 | 3.2 | 4.8 | 0.00 | 0.00 | 0.00 | 72 | 1014.9 |
| 20260505024535 | 17 | 153 | 1.6 | 3.2 | 0.00 | 0.00 | 0.00 | 72 | 1014.9 |
| 20260505023033 | 18 | 140 | 3.2 | 3.2 | 0.00 | 0.00 | 0.00 | 70 | 1015.2 |
| 20260505021529 | 18 | 143 | 1.6 | 1.6 | 0.00 | 0.00 | 0.00 | 68 | 1014.8 |
| 20260505020029 | 18 | 131 | 3.2 | 3.2 | 0.00 | 0.00 | 0.00 | 67 | 1014.7 |
| 20260505014526 | 18 | 153 | 4.8 | 4.8 | 0.00 | 0.00 | 0.00 | 66 | 1014.6 |
| 20260505013023 | 18 | 144 | 1.6 | 4.8 | 0.00 | 0.00 | 0.00 | 66 | 1014.5 |
| 20260505011519 | 19 | 143 | 1.6 | 3.2 | 0.00 | 0.00 | 0.00 | 64 | 1014.5 |
| 20260505010015 | 20 | 142 | 3.2 | 3.2 | 0.00 | 0.00 | 0.00 | 61 | 1014.4 |
| 20260505004511 | 20 | 149 | 3.2 | 8.0 | 0.00 | 0.00 | 0.00 | 59 | 1014.6 |
| 20260505003008 | 22 | 147 | 6.4 | 8.0 | 0.00 | 0.00 | 0.00 | 50 | 1014.7 |
| 20260505001505 | 22 | 147 | 6.4 | 8.0 | 0.00 | 0.00 | 0.00 | 50 | 1015.0 |
| 20260505000002 | 22 | 156 | 11.3 | 14.5 | 0.00 | 0.00 | 0.00 | 49 | 1014.9 |
| 20260504234459 | 22 | 166 | 4.8 | 4.8 | 0.00 | 0.00 | 0.00 | 48 | 1014.8 |
| 20260504232954 | 23 | 189 | 4.8 | 9.7 | 0.00 | 0.00 | 0.00 | 45 | 1014.9 |
| 20260504231450 | 23 | 156 | 6.4 | 8.0 | 0.00 | 0.00 | 0.00 | 41 | 1015.1 |
| 20260504225948 | 25 | 164 | 9.7 | 14.5 | 0.00 | 0.00 | 0.00 | 39 | 1015.1 |
| 20260504224444 | 25 | 161 | 1.6 | 11.3 | 0.00 | 0.00 | 0.00 | 37 | 1015.0 |
| 20260504222944 | 25 | 150 | 9.7 | 12.9 | 0.00 | 0.00 | 0.00 | 37 | 1015.3 |
| 20260504221443 | 25 | 154 | 4.8 | 12.9 | 0.00 | 0.00 | 0.00 | 35 | 1015.3 |
| 20260504215939 | 25 | 186 | 6.4 | 14.5 | 0.00 | 0.00 | 0.00 | 34 | 1015.5 |
| 20260504214435 | 25 | 177 | 4.8 | 9.7 | 0.00 | 0.00 | 0.00 | 32 | 1015.7 |
| 20260504212931 | 25 | 204 | 4.8 | 8.0 | 0.00 | 0.00 | 0.00 | 33 | 1015.7 |
| 20260504211432 | 25 | 170 | 1.6 | 3.2 | 0.00 | 0.00 | 0.00 | 35 | 1015.8 |
| 20260504205929 | 26 | 219 | 1.6 | 11.3 | 0.00 | 0.00 | 0.00 | 36 | 1015.9 |
| 20260504204428 | 25 | 188 | 9.7 | 11.3 | 0.00 | 0.00 | 0.00 | 35 | 1016.0 |
| 20260504202926 | 25 | 202 | 4.8 | 8.0 | 0.00 | 0.00 | 0.00 | 36 | 1016.3 |
| 20260504201423 | 26 | 175 | 8.0 | 11.3 | 0.00 | 0.00 | 0.00 | 39 | 1016.5 |
| 20260504195920 | 25 | 167 | 8.0 | 9.7 | 0.00 | 0.00 | 0.00 | 38 | 1016.9 |
| 20260504194420 | 26 | 155 | 4.8 | 8.0 | 0.00 | 0.00 | 0.00 | 41 | 1017.1 |
| 20260504192918 | 25 | 172 | 11.3 | 12.9 | 0.00 | 0.00 | 0.00 | 39 | 1017.4 |
| 20260504191417 | 25 | 172 | 4.8 | 4.8 | 0.00 | 0.00 | 0.00 | 40 | 1017.3 |
| 20260504185917 | 25 | 214 | 4.8 | 8.0 | 0.00 | 0.00 | 0.00 | 39 | 1017.6 |
| 20260504184417 | 25 | 91 | 3.2 | 3.2 | 0.00 | 0.00 | 0.00 | 43 | 1017.7 |
| 20260504182914 | 25 | 142 | 1.6 | 3.2 | 0.00 | 0.00 | 0.00 | 40 | 1017.8 |
| 20260504181411 | 25 | 160 | 8.0 | 11.3 | 0.00 | 0.00 | 0.00 | 41 | 1018.2 |
| 20260504175906 | 25 | 146 | 6.4 | 9.7 | 0.00 | 0.00 | 0.00 | 39 | 1018.3 |
| 20260504174404 | 25 | 144 | 4.8 | 4.8 | 0.00 | 0.00 | 0.00 | 39 | 1018.2 |
| 20260504172900 | 25 | 149 | 3.2 | 4.8 | 0.00 | 0.00 | 0.00 | 44 | 1018.6 |
| 20260504171356 | 24 | 178 | 6.4 | 9.7 | 0.00 | 0.00 | 0.00 | 39 | 1018.4 |
| 20260504141315 | 21 | 137 | 1.6 | 8.0 | 0.00 | 0.00 | 0.00 | 47 | 1019.3 |
| 20260504081158 | 12 | 143 | 0.0 | 0.0 | 0.00 | 0.00 | 0.00 | 90 | 1018.9 |
| 20260504045611 | 13 | 141 | 0.0 | 0.0 | 0.00 | 0.00 | 0.00 | 83 | 1020.3 |
| 20260504044106 | 15 | 146 | 0.0 | 0.0 | 0.00 | 0.00 | 0.00 | 76 | 1020.5 |
| 20260504042604 | 15 | 139 | 0.0 | 1.6 | 0.00 | 0.00 | 0.00 | 71 | 1020.5 |
| 20260504041058 | 16 | 163 | 1.6 | 3.2 | 0.00 | 0.00 | 0.00 | 69 | 1020.5 |